Printer-friendly version

IAU Minor Planet Center

Minor Planet Center

MPEC 2006-B63 : 2006 BW39

The following Minor Planet Electronic Circular may be linked-to from your own Web pages, but must not otherwise be redistributed electronically.


Read MPEC 2006-B62 Read MPEC 2006-B64


M.P.E.C. 2006-B63                                Issued 2006 Jan. 26, 23:29 UT

     The Minor Planet Electronic Circulars contain information on unusual
         minor planets and routine data on comets.  They are published
   on behalf of Commission 20 of the International Astronomical Union by the
          Minor Planet Center, Smithsonian Astrophysical Observatory,
                          Cambridge, MA 02138, U.S.A.

                  Supported in part by the Brinson Foundation
                  Supported in part by the TABASGO Foundation
             Prepared using the Tamkin Foundation Computer Network

                              MPC@CFA.HARVARD.EDU
          URL http://cfa-www.harvard.edu/iau/mpc.html  ISSN 1523-6714

                                   2006 BW39

Observations:
     K06B39W* C2006 01 26.33397 09 33 29.62 +17 00 37.2          18.2 V EB063703
     K06B39W  C2006 01 26.34024 09 33 33.69 +16 59 31.6          18.1 V EB063703
     K06B39W  C2006 01 26.34654 09 33 37.90 +16 58 25.6          18.1 V EB063703
     K06B39W  C2006 01 26.38722 09 34 04.62 +16 51 16.6          17.7 V EB063703
     K06B39W  C2006 01 26.39542 09 34 10.09 +16 49 47.1          17.9 V EB063703
     K06B39W  C2006 01 26.40356 09 34 15.49 +16 48 19.0          18.1 V EB063703
     K06B39W  C2006 01 26.66654 09 37 30.65 +16 02 59.8          19.0 V EB063E12
     K06B39W  C2006 01 26.66689 09 37 30.91 +16 02 54.6          18.6 V EB063E12
     K06B39W  C2006 01 26.66725 09 37 31.19 +16 02 51.6          18.9 V EB063E12
     K06B39W  C2006 01 26.66761 09 37 31.43 +16 02 46.8          18.5 V EB063E12
     K06B39W  C2006 01 26.66798 09 37 31.70 +16 02 43.4          18.8 V EB063E12
     K06B39W  C2006 01 26.96224 09 41 24.16 +15 01 49.5                 EB063246
     K06B39W  C2006 01 26.96308 09 41 24.77 +15 01 39.3                 EB063246
     K06B39W  C2006 01 26.96347 09 41 25.03 +15 01 35.1                 EB063246
     K06B39W  C2006 01 26.96405 09 41 25.50 +15 01 27.9                 EB063246
     K06B39W  C2006 01 26.96454 09 41 25.88 +15 01 21.7                 EB063246

Observer details:
246 Klet Observatory-KLENOT.  Observer M. Tichy.  1.06-m KLENOT Telescope
    + CCD.
703 Catalina Sky Survey.  Observer R. A. Kowalski.  Measurers E. C. Beshore,
    E. J. Christensen, G. J. Garradd, A. D. Grauer, R. E. Hill, R. A. Kowalski,
    S. M. Larson, R. H. McNaught.  0.68-m Schmidt + CCD.
E12 Siding Spring Survey.  Observer R. H. McNaught.  Measurers E. C. Beshore,
    E. J. Christensen, G. J. Garradd, A. D. Grauer, R. E. Hill, R. A. Kowalski,
    S. M. Larson, R. H. McNaught.  0.5-m Uppsala Schmidt + CCD.

Orbital elements:
2006 BW39                                                Earth MOID = 0.0158 AU
Epoch 2006 Mar. 6.0 TT = JDT 2453800.5                  MPC
M   0.27322              (2000.0)            P               Q
n   0.35313333     Peri.  227.29277     -0.99378911     -0.07771591
a   1.9823343      Node   308.09243     +0.10553304     -0.88523380
e   0.5383010      Incl.    5.80825     -0.03529854     -0.45860806
P   2.79           H   23.8           G   0.15           U   8
Residuals in seconds of arc
060126 703  0.1+  0.6-    060126 E12  0.3-  0.5+    060126 246  0.1-  0.2-
060126 703  0.5-  0.5-    060126 E12  0.1-  0.8-    060126 246  0.6-  0.3+
060126 703  0.6+  0.3-    060126 E12  0.3+  0.3+    060126 246  0.1-  0.1+
060126 703  0.5-  2.0+    060126 E12  0.2+  0.4-    060126 246  0.1+  0.2-
060126 703  0.1+  0.2+    060126 E12  0.4+  0.4+
060126 703  0.0   0.6-    060126 246  0.2+  0.1-

Ephemeris:
2006 BW39                a,e,i = 1.99, 0.54, 6                   q = 0.9155
Date    TT    R. A. (2000) Decl.     Delta      r     Elong.  Phase     V
2006 01 25    09 19.22   +20 24.4    0.0625   1.046   168.0    11.3    18.6
2006 01 26    09 29.60   +17 57.8    0.0567   1.040   166.5    12.8    18.4
2006 01 27    09 41.85   +14 56.0    0.0511   1.034   164.0    15.2    18.3
2006 01 28    09 56.45   +11 08.5    0.0459   1.028   160.4    18.7    18.1
2006 01 29    10 13.98   +06 23.5    0.0413   1.023   155.4    23.6    18.0
2006 01 30    10 35.14   +00 29.1    0.0372   1.017   148.8    30.2    18.0
2006 01 31    11 00.70   -06 39.6    0.0341   1.012   140.3    38.4    18.0
2006 02 01    11 31.33   -14 50.4    0.0321   1.006   130.3    48.3    18.2
2006 02 02    12 07.28   -23 24.0    0.0314   1.001   119.3    59.1    18.4
2006 02 03    12 47.88   -31 21.1    0.0321   0.996   108.3    70.0    18.8
2006 02 04    13 31.20   -37 49.7    0.0341   0.991    98.2    79.8    19.2
2006 02 05    14 14.37   -42 28.7    0.0373   0.986    89.7    88.1    19.7
2006 02 06    14 54.60   -45 27.6    0.0412   0.982    82.8    94.8    20.2
2006 02 07    15 30.09   -47 10.6    0.0458   0.977    77.3   100.0    20.7
2006 02 08    16 00.31   -48 02.3    0.0508   0.973    73.1   104.1    21.1
2006 02 09    16 25.57   -48 21.9    0.0562   0.969    69.7   107.1    21.5
2006 02 10    16 46.57   -48 22.3    0.0618   0.964    67.2   109.5    21.8
2006 02 11    17 04.08   -48 11.6    0.0676   0.960    65.1   111.2    22.1
2006 02 12    17 18.77   -47 54.7    0.0735   0.957    63.6   112.5    22.4
2006 02 13    17 31.23   -47 34.7    0.0795   0.953    62.3   113.4    22.6
2006 02 14    17 41.90   -47 13.3    0.0856   0.949    61.4   114.1    22.8

Timothy B. Spahr             (C) Copyright 2006 MPC           M.P.E.C. 2006-B63

Read MPEC 2006-B62 Read MPEC 2006-B64


Our Web policy. Index to the CBAT/MPC/ICQ pages.


Valid HTML 4.01!